Regional Weather Roundup
Issued by NWS

Home | Current Version | Previous Version | Graphics & Text | Print | Product List | Glossary On
Versions: 1 2 3 4 5 6 7 8 9 10 11 12 13 14 15 16 17 18 19 20 21 22 23 24 25 26 27 28 29 30 31 32 33 34 35 36 37 38 39 40 41 42 43 44 45 46 47 48 49 50
000
ASUS45 KTFX 251310
RWRMT
MONTANA REGIONAL WEATHER ROUNDUP
NATIONAL WEATHER SERVICE GREAT FALLS MT
600 AM MST SAT FEB 25 2017

NOTE: "FAIR" INDICATES FEW OR NO CLOUDS BELOW 12000 FEET WITH NO
SIGNIFICANT WEATHER AND/OR OBSTRUCTIONS TO VISIBILITY.

MTZ001>007-043-251400-
WEST OF THE DIVIDE

CITY           SKY/WX    TMP DP  RH WIND       PRES   REMARKS
KALISPELL      CLOUDY    11   7  84 CALM      29.99F
MISSOULA       MOCLDY    20  15  81 N5        30.04F
BUTTE          CLEAR      5   1  83 SE7       29.90F FOG     WCI  -7
MULLAN PASS    FLURRIES  12  10  92 VRB6      29.87F WCI   3
ANACONDA         N/A     18   7  62 S3        29.94S
DEER LODGE       N/A     18  12  79 CALM      29.96F
EUREKA           N/A     19  10  68 E8        29.98F WCI   9
HAMILTON         N/A     21  12  68 CALM      30.03F
LIBBY            N/A     12  10  92 CALM      30.03F
RONAN            N/A     22  15  74 CALM      30.04S
$$

MTZ008-052>055-251400-
SOUTHWEST MONTANA

CITY           SKY/WX    TMP DP  RH WIND       PRES   REMARKS
BOZEMAN        LGT SNOW  21  18  88 NW9       29.94F VSB 1   WCI  11
DILLON         CLOUDY    16  10  77 SW15      29.92F WCI   1
W YELLOWSTONE  LGT SNOW  10   5  79 SW10G18   29.88F WCI  -3
ENNIS          CLOUDY    19   7  58 S13G21    29.96S WCI   7
THREE FORKS      N/A     22  16  78 CALM      29.95F
TWIN BRIDGES     N/A     19  10  68 SE5       29.94F
$$

MTZ009-010-012-014-046-048-049-054-251400-
EAST SLOPES AND CENTRAL MONTANA

CITY           SKY/WX    TMP DP  RH WIND       PRES   REMARKS
CUT BANK       PTCLDY    19  12  74 W16       29.82F WCI   4
GREAT FALLS    CLEAR     16  10  77 SW13      29.88F WCI   2
MALMSTROM AFB  CLEAR     16  13  87 SW13      29.90F WCI   3
HELENA         PTCLDY    22  12  65 CALM      29.94F
AUGUSTA        CLOUDY    20   9  60 SW12      29.84F WCI   8
BOWMANS CRNR     N/A     16   8  72 SW14      29.85F WCI   1
CHOTEAU          N/A     19  10  68 SW7       29.87F WCI  10
CONRAD           N/A     15  10  80 SW7       29.87F WCI   5
POWER            N/A     14  10  81 SW7       29.86F WCI   4
RAYNESFORD       N/A     22   7  53 SW18G24   29.87F WCI   7
ULM              N/A     17  11  77 MISG      29.90F
$$

MTZ011-013-016-021-045-047-050-051-251400-
NORTH CENTRAL MONTANA

CITY           SKY/WX    TMP DP  RH WIND       PRES   REMARKS
HAVRE          CLOUDY    20  18  92 SW8       29.89F WCI  10
LEWISTOWN      CLEAR     11   8  88 CALM      29.87F
N BAR RANCH    CLOUDY    10   5  79 CALM      29.88F
CHINOOK          N/A     18  18 100 CALM      29.91F
DENTON           N/A     17  12  80 SW14      29.85F WCI   3
FORT BENTON      N/A     19  14  79 MISG      29.92F
GEYSER           N/A     14   9  80 W9        29.87F WCI   2
GRASS RANGE      N/A     15  12  85 W5        29.85F
JUDITH GAP       N/A     11   7  86 SW6       29.85F WCI   1
ROY              N/A     19  12  77 MISG      29.86F
STANFORD         N/A     18   9  67 W14       29.85F WCI   4
WINIFRED         N/A     16  12  84 SW8       29.86F WCI   6
$$

MTZ017>020-022>027-061-062-251400-
NORTHEAST MONTANA

CITY           SKY/WX    TMP DP  RH WIND       PRES   REMARKS
GLASGOW        CLOUDY    21  18  88 CALM      29.92F
JORDAN           N/A     20  17  88 W8        29.91F WCI  10
SIDNEY         MOCLDY    17  15  92 NW17      29.93F FOG     WCI   1
WOLF POINT     CLOUDY    17  12  80 SW5       29.95F
PLENTYWOOD       N/A     14  12  92 W5        29.92F
POPLAR           N/A     10   9  92 CALM      29.95F
SCOBEY           N/A     13   6  73 CALM      29.89
$$

MTZ028>42-056>058-251400-
SOUTHCENTRAL AND SOUTHEAST MONTANA

CITY           SKY/WX    TMP DP  RH WIND       PRES   REMARKS
BAKER          CLOUDY    25  22  88 NW17      29.88S WCI  12
BILLINGS       CLOUDY    23  19  85 SW12      29.92F WCI  12
LIVINGSTON     LGT SNOW  20  17  88 NW9       29.90F FOG     WCI   9
MILES CITY     CLOUDY    26  21  81 W15       29.94F WCI  14
BIG TIMBER     CLOUDY    19  18  93 W20       29.91F FOG     WCI   4
EKALAKA          N/A     23  19  85 W12       29.86  WCI  12
FORSYTH          N/A     21  21 100 SW3       29.94F
HARLOWTON        N/A     12   8  87 W7        29.88F WCI   1
LAUREL           N/A     22  16  78 CALM      29.91F
$$

REGIONAL REPORTS...DAKOTAS

CITY           SKY/WX    TMP DP  RH WIND       PRES   REMARKS
WILLISTON      CLOUDY    19  17  92 N10       29.93F WCI   7
MINOT          CLOUDY    23  20  88 W15       29.89S WCI  10
DICKINSON      FLURRIES  21  16  81 NW5       29.85F
BEACH            N/A    N/A N/A N/A MISG        N/A
CROSBY         MOCLDY    18  18 100 NW8       29.94F WCI   7
TIOGA          CLOUDY    18  18 100 NW9       29.91F WCI   6
WATFORD CITY   FOG       16  16 100 CALM      29.92S VSB 3/4
BISMARCK       CLOUDY    21  17  84 W6        29.92F WCI  13
GRAND FORKS    CLOUDY    21  13  71 S6        29.90F WCI  13
FARGO          CLOUDY    20  15  81 S8        29.96F WCI  10
BUFFALO SD       N/A     23  21  92 W12       29.81F WCI  12
RAPID CITY     CLOUDY    19  12  74 NW7       29.90F WCI  10
$$

REGIONAL REPORTS...WYOMING/IDAHO/WASHINGTON

CITY           SKY/WX    TMP DP  RH WIND       PRES   REMARKS
GILLETTE       CLOUDY    19  16  88 W8        29.89F WCI   9
SHERIDAN       MOCLDY    21  15  78 S6        29.92F WCI  13
BUFFALO WY     CLOUDY    15   7  70 VRB3      29.88F
CODY           CLOUDY    20   4  50 W8G21     29.88F WCI  10
YELLOWSTONE LA   N/A      1  -2  87 CALM      29.84F
IDAHO FALLS    CLOUDY     9   6  88 W8        30.02F WCI  -3
SALMON         CLOUDY    23  19  86 CALM      30.02S
BOISE          CLEAR     22  14  71 E5        30.13S
SPOKANE        FOG       13  11  92 SW6       30.10F VSB 1/2 WCI   4
$$

REGIONAL REPORTS...ALBERTA

CITY           SKY/WX    TMP DP  RH WIND       PRES   REMARKS
EDMONTON       CLEAR     10   5  79 S5        29.85F
CALGARY        LGT SNOW  14  12  92 SE5       29.81F FOG
LETHBRIDGE     MOCLDY    18  18 100 CALM      29.85F
MEDICINE HAT   FLURRIES  16  14  93 E7        29.91F WCI   6
WATERTON GATE    N/A     21   7  53 SW16G23     N/A  WCI   7
MILK RIVER       N/A     12   9  85 NW7         N/A  WCI   2
$$

REGIONAL REPORTS...SASKATCHEWAN

CITY           SKY/WX    TMP DP  RH WIND       PRES   REMARKS
SWIFT CURRENT  LGT SNOW   9   7  92 N6        29.88F WCI  -1
REGINA         FLURRIES  12   7  79 NW13      29.93F WCI  -3
SASKATOON      CLOUDY     7   1  78 NW5       29.98F
CYPRESS HILLS    N/A      9   5  85 N3          N/A
VAL MARIE        N/A     18  16  93 NE2         N/A
ROCKGLEN         N/A     14  12  92 N8          N/A  WCI   3
ASSINIBOIA       N/A      7   5  92 S3          N/A
$$



USA.gov is the U.S. government's official web portal to all federal, state and local government web resources and services.